Time,TemperatureF,DewpointF,PressureIn,WindDirection,WindDirectionDegrees,WindSpeedMPH,WindSpeedGustMPH,Humidity,HourlyPrecipIn,Conditions,Clouds,dailyrainin,SoftwareType,DateUTC
2013-06-04 04:32:00,66.4,62.4,28.79,ENE,68,0.0,0.0,87,0.00,,---,0.00,VWS V14.00,2013-06-04 08:32:00,
2013-06-04 04:35:00,66.2,62.2,28.79,ENE,68,0.0,0.0,87,0.00,,---,0.00,VWS V14.00,2013-06-04 08:35:00,
2013-06-04 04:38:00,66.2,62.2,28.79,ENE,68,0.0,0.0,87,0.00,,---,0.00,VWS V14.00,2013-06-04 08:38:00,
2013-06-04 04:41:00,66.2,62.2,28.79,ENE,68,0.0,0.0,87,0.00,,---,0.00,VWS V14.00,2013-06-04 08:41:00,
2013-06-04 04:47:00,66.0,62.0,28.79,ENE,68,0.0,0.0,87,0.00,,---,0.00,VWS V14.00,2013-06-04 08:47:00,
2013-06-04 04:50:00,66.0,62.0,28.79,ENE,68,0.0,0.0,87,0.00,,---,0.00,VWS V14.00,2013-06-04 08:50:00,
2013-06-04 04:56:00,66.0,62.0,28.79,ENE,68,0.0,0.0,87,0.00,,---,0.00,VWS V14.00,2013-06-04 08:56:00,
2013-06-04 05:02:00,65.8,61.9,28.79,ENE,68,0.0,0.0,87,0.00,,---,0.00,VWS V14.00,2013-06-04 09:02:00,
2013-06-04 05:08:00,65.8,61.9,28.79,ENE,68,0.0,0.0,87,0.00,,---,0.00,VWS V14.00,2013-06-04 09:08:00,
2013-06-04 05:15:00,65.8,61.9,28.82,ENE,68,0.0,0.0,87,0.00,,---,0.00,VWS V14.00,2013-06-04 09:15:00,
2013-06-04 05:21:00,65.7,61.7,28.82,ENE,68,0.0,0.0,87,0.00,,---,0.00,VWS V14.00,2013-06-04 09:21:00,
2013-06-04 05:27:00,65.5,61.5,28.82,ENE,68,0.0,0.0,87,0.00,,---,0.00,VWS V14.00,2013-06-04 09:27:00,
2013-06-04 05:33:00,65.3,61.3,28.82,ENE,68,0.0,0.0,87,0.00,,---,0.00,VWS V14.00,2013-06-04 09:33:00,
2013-06-04 05:39:00,65.1,61.2,28.82,ENE,68,0.0,0.0,87,0.00,,---,0.00,VWS V14.00,2013-06-04 09:39:00,
2013-06-04 05:45:00,65.1,61.2,28.82,ENE,68,0.0,0.0,87,0.00,,---,0.00,VWS V14.00,2013-06-04 09:45:00,
2013-06-04 05:51:00,65.1,61.2,28.82,ENE,68,0.0,0.0,87,0.00,,---,0.00,VWS V14.00,2013-06-04 09:51:00,
2013-06-04 05:57:00,64.9,61.0,28.82,ENE,68,0.0,0.0,87,0.00,,---,0.00,VWS V14.00,2013-06-04 09:57:00,
2013-06-04 06:03:00,64.9,60.7,28.82,ENE,68,0.0,0.0,86,0.00,,---,0.00,VWS V14.00,2013-06-04 10:03:00,
2013-06-04 06:09:00,64.8,60.5,28.82,ENE,68,0.0,0.0,86,0.00,,---,0.00,VWS V14.00,2013-06-04 10:09:00,
2013-06-04 06:15:00,64.6,60.6,28.85,ENE,68,0.0,0.0,87,0.00,,---,0.00,VWS V14.00,2013-06-04 10:15:00,
2013-06-04 06:21:00,64.8,60.8,28.85,ENE,68,0.0,0.0,87,0.00,,---,0.00,VWS V14.00,2013-06-04 10:21:00,
2013-06-04 06:27:00,64.6,60.6,28.82,ENE,68,0.0,0.0,87,0.00,,---,0.00,VWS V14.00,2013-06-04 10:27:00,
2013-06-04 06:33:00,64.6,60.6,28.82,ENE,68,0.0,0.0,87,0.00,,---,0.00,VWS V14.00,2013-06-04 10:33:00,
2013-06-04 06:39:00,64.6,60.6,28.85,ENE,68,0.0,0.0,87,0.00,,---,0.00,VWS V14.00,2013-06-04 10:39:00,
2013-06-04 06:45:00,64.6,60.6,28.85,ENE,68,0.0,0.0,87,0.00,,---,0.00,VWS V14.00,2013-06-04 10:45:00,
2013-06-04 06:51:00,64.8,60.8,28.85,ENE,68,0.0,0.0,87,0.00,,---,0.00,VWS V14.00,2013-06-04 10:51:00,
2013-06-04 06:57:00,64.8,60.8,28.85,ENE,68,0.0,0.0,87,0.00,,---,0.00,VWS V14.00,2013-06-04 10:57:00,
2013-06-04 07:03:00,65.1,61.2,28.85,ENE,68,0.0,0.0,87,0.00,,---,0.00,VWS V14.00,2013-06-04 11:03:00,
2013-06-04 07:09:00,65.1,61.2,28.85,ENE,68,0.0,0.0,87,0.00,,---,0.00,VWS V14.00,2013-06-04 11:09:00,
2013-06-04 07:15:00,65.3,61.3,28.85,ENE,68,0.0,0.0,87,0.00,,---,0.00,VWS V14.00,2013-06-04 11:15:00,
2013-06-04 07:21:00,65.5,61.8,28.85,ENE,68,0.0,0.0,88,0.00,,---,0.00,VWS V14.00,2013-06-04 11:21:00,
2013-06-04 07:27:00,65.7,62.0,28.85,ENE,68,0.0,0.0,88,0.00,,---,0.00,VWS V14.00,2013-06-04 11:27:00,
2013-06-04 07:33:00,65.8,62.2,28.85,ENE,68,0.0,0.0,88,0.00,,---,0.00,VWS V14.00,2013-06-04 11:33:00,
2013-06-04 07:39:00,66.4,62.7,28.85,ENE,68,0.0,0.0,88,0.00,,---,0.00,VWS V14.00,2013-06-04 11:39:00,
2013-06-04 07:45:00,66.7,63.4,28.85,ENE,68,0.0,0.0,89,0.00,,---,0.00,VWS V14.00,2013-06-04 11:45:00,
2013-06-04 07:51:00,67.3,63.9,28.85,ENE,68,0.0,0.0,89,0.00,,---,0.00,VWS V14.00,2013-06-04 11:51:00,
2013-06-04 07:57:00,67.8,64.5,28.85,ENE,68,0.0,0.0,89,0.00,,---,0.00,VWS V14.00,2013-06-04 11:57:00,
2013-06-04 08:03:00,68.0,64.6,28.85,ENE,68,0.0,0.0,89,0.00,,---,0.00,VWS V14.00,2013-06-04 12:03:00,
2013-06-04 08:10:00,68.5,65.2,28.85,ENE,68,0.0,0.0,89,0.00,,---,0.00,VWS V14.00,2013-06-04 12:10:00,
2013-06-04 08:16:00,68.9,65.5,28.85,ENE,68,0.0,0.0,89,0.00,,---,0.00,VWS V14.00,2013-06-04 12:16:00,
2013-06-04 08:22:00,69.6,64.9,28.85,ESE,112,0.0,0.0,85,0.00,,---,0.00,VWS V14.00,2013-06-04 12:22:00,
2013-06-04 08:28:00,70.3,65.6,28.85,ESE,112,0.0,0.0,85,0.00,,---,0.00,VWS V14.00,2013-06-04 12:28:00,
2013-06-04 08:34:00,70.5,65.8,28.85,ESE,112,0.0,0.0,85,0.00,,---,0.00,VWS V14.00,2013-06-04 12:34:00,
2013-06-04 08:40:00,71.6,66.5,28.85,ESE,112,0.0,0.0,84,0.00,,---,0.00,VWS V14.00,2013-06-04 12:40:00,
2013-06-04 08:46:00,72.1,66.7,28.85,ESE,112,0.0,0.0,83,0.00,,---,0.00,VWS V14.00,2013-06-04 12:46:00,
2013-06-04 08:52:00,72.7,66.5,28.85,ESE,112,0.0,0.0,81,0.00,,---,0.00,VWS V14.00,2013-06-04 12:52:00,
2013-06-04 08:58:00,73.2,67.1,28.85,ESE,112,0.0,0.0,81,0.00,,---,0.00,VWS V14.00,2013-06-04 12:58:00,
2013-06-04 09:04:00,73.6,67.0,28.85,ESE,112,0.0,0.0,80,0.00,,---,0.00,VWS V14.00,2013-06-04 13:04:00,
2013-06-04 09:10:00,74.3,67.4,28.88,ESE,112,0.0,0.0,79,0.00,,---,0.00,VWS V14.00,2013-06-04 13:10:00,
2013-06-04 09:16:00,74.7,67.3,28.88,ESE,112,0.0,0.0,78,0.00,,---,0.00,VWS V14.00,2013-06-04 13:16:00,
2013-06-04 09:22:00,74.7,67.0,28.88,ESE,112,0.0,0.0,77,0.00,,---,0.00,VWS V14.00,2013-06-04 13:22:00,
2013-06-04 09:28:00,74.7,67.0,28.88,ESE,112,0.0,0.0,77,0.00,,---,0.00,VWS V14.00,2013-06-04 13:28:00,
2013-06-04 09:34:00,74.7,67.0,28.88,ESE,112,0.0,0.0,77,0.00,,---,0.00,VWS V14.00,2013-06-04 13:34:00,
2013-06-04 09:40:00,75.2,67.5,28.88,ESE,112,0.0,0.0,77,0.00,,---,0.00,VWS V14.00,2013-06-04 13:40:00,
2013-06-04 09:49:00,75.7,67.6,28.88,ESE,112,0.0,0.0,76,0.00,,---,0.00,VWS V14.00,2013-06-04 13:49:00,
2013-06-04 09:55:00,76.1,68.0,28.88,ESE,112,0.0,0.0,76,0.00,,---,0.00,VWS V14.00,2013-06-04 13:55:00,
2013-06-04 10:01:00,76.5,67.9,28.88,ESE,112,0.0,0.0,75,0.00,,---,0.00,VWS V14.00,2013-06-04 14:01:00,
2013-06-04 10:07:00,76.6,68.1,28.88,ESE,112,0.0,0.0,75,0.00,,---,0.00,VWS V14.00,2013-06-04 14:07:00,
2013-06-04 10:13:00,77.0,68.1,28.88,ESE,112,0.0,0.0,74,0.00,,---,0.00,VWS V14.00,2013-06-04 14:13:00,
2013-06-04 10:19:00,77.2,68.3,28.88,ESE,112,0.0,0.0,74,0.00,,---,0.00,VWS V14.00,2013-06-04 14:19:00,
2013-06-04 10:25:00,77.9,68.6,28.88,ESE,112,0.0,0.0,73,0.00,,---,0.00,VWS V14.00,2013-06-04 14:25:00,
2013-06-04 10:31:00,78.3,68.9,28.88,ESE,112,2.2,2.2,73,0.00,,---,0.00,VWS V14.00,2013-06-04 14:31:00,
2013-06-04 10:37:00,78.6,69.2,28.88,NE,45,0.0,2.2,73,0.00,,---,0.00,VWS V14.00,2013-06-04 14:37:00,
2013-06-04 10:43:00,79.3,69.1,28.88,NE,45,0.0,2.2,71,0.00,,---,0.00,VWS V14.00,2013-06-04 14:43:00,
2013-06-04 10:49:00,79.7,69.5,28.88,North,0,0.0,2.2,71,0.00,,---,0.00,VWS V14.00,2013-06-04 14:49:00,
2013-06-04 10:55:00,80.1,69.4,28.88,North,0,0.0,2.2,70,0.00,,---,0.00,VWS V14.00,2013-06-04 14:55:00,
2013-06-04 11:01:00,80.4,70.2,28.88,North,0,0.0,0.0,71,0.00,,---,0.00,VWS V14.00,2013-06-04 15:01:00,
2013-06-04 11:07:00,80.8,69.7,28.88,North,0,0.0,0.0,69,0.00,,---,0.00,VWS V14.00,2013-06-04 15:07:00,
2013-06-04 11:13:00,81.0,69.8,28.88,North,0,0.0,0.0,69,0.00,,---,0.00,VWS V14.00,2013-06-04 15:13:00,
2013-06-04 11:20:00,81.5,69.5,28.88,ENE,68,2.0,2.0,67,0.00,,---,0.00,VWS V14.00,2013-06-04 15:20:00,
2013-06-04 11:26:00,81.9,70.3,28.88,ENE,68,2.0,2.0,68,0.00,,---,0.00,VWS V14.00,2013-06-04 15:26:00,
2013-06-04 11:32:00,81.9,69.8,28.88,ENE,68,2.0,2.0,67,0.00,,---,0.00,VWS V14.00,2013-06-04 15:32:00,
2013-06-04 11:38:00,82.0,70.4,28.88,East,90,0.0,2.0,68,0.00,,---,0.00,VWS V14.00,2013-06-04 15:38:00,
2013-06-04 11:44:00,82.0,69.6,28.88,ESE,112,0.0,2.0,66,0.00,,---,0.00,VWS V14.00,2013-06-04 15:44:00,
2013-06-04 11:50:00,82.2,69.7,28.88,ESE,112,0.0,2.0,66,0.00,,---,0.00,VWS V14.00,2013-06-04 15:50:00,
2013-06-04 11:56:00,82.4,69.9,28.88,ESE,112,0.0,2.0,66,0.00,,---,0.00,VWS V14.00,2013-06-04 15:56:00,
2013-06-04 12:02:00,82.6,70.1,28.88,ESE,112,0.0,0.0,66,0.00,,---,0.00,VWS V14.00,2013-06-04 16:02:00,
2013-06-04 12:08:00,82.9,70.4,28.88,East,90,1.6,1.6,66,0.00,,---,0.00,VWS V14.00,2013-06-04 16:08:00,
2013-06-04 12:14:00,83.1,70.6,28.88,East,90,1.6,1.6,66,0.00,,---,0.00,VWS V14.00,2013-06-04 16:14:00,
2013-06-04 12:20:00,83.3,70.8,28.88,East,90,1.6,1.6,66,0.00,,---,0.00,VWS V14.00,2013-06-04 16:20:00,
2013-06-04 12:26:00,83.8,70.8,28.88,East,90,1.6,1.6,65,0.00,,---,0.00,VWS V14.00,2013-06-04 16:26:00,
2013-06-04 12:32:00,83.5,70.5,28.88,East,90,1.6,1.6,65,0.00,,---,0.00,VWS V14.00,2013-06-04 16:32:00,
2013-06-04 12:38:00,83.3,70.3,28.88,East,90,1.6,1.6,65,0.00,,---,0.00,VWS V14.00,2013-06-04 16:38:00,
2013-06-04 12:44:00,83.8,70.8,28.88,East,90,1.6,1.6,65,0.00,,---,0.00,VWS V14.00,2013-06-04 16:44:00,
2013-06-04 12:50:00,84.0,71.0,28.88,East,90,1.6,1.6,65,0.00,,---,0.00,VWS V14.00,2013-06-04 16:50:00,
2013-06-04 12:56:00,84.4,71.3,28.85,East,90,1.6,1.6,65,0.00,,---,0.00,VWS V14.00,2013-06-04 16:56:00,
2013-06-04 13:02:00,84.6,71.1,28.85,East,90,2.2,2.2,64,0.00,,---,0.00,VWS V14.00,2013-06-04 17:02:00,
2013-06-04 13:08:00,85.1,72.0,28.85,East,90,2.2,2.2,65,0.00,,---,0.00,VWS V14.00,2013-06-04 17:08:00,
2013-06-04 13:14:00,85.1,72.0,28.85,East,90,2.7,2.7,65,0.00,,---,0.00,VWS V14.00,2013-06-04 17:14:00,
2013-06-04 13:20:00,85.5,71.9,28.85,East,90,2.7,2.7,64,0.00,,---,0.00,VWS V14.00,2013-06-04 17:20:00,
2013-06-04 13:26:00,85.1,71.1,28.85,East,90,2.7,2.7,63,0.00,,---,0.00,VWS V14.00,2013-06-04 17:26:00,
2013-06-04 13:32:00,85.3,71.7,28.85,ESE,112,2.7,2.7,64,0.00,,---,0.00,VWS V14.00,2013-06-04 17:32:00,
2013-06-04 13:38:00,85.5,71.9,28.85,ESE,112,2.7,2.7,64,0.00,,---,0.00,VWS V14.00,2013-06-04 17:38:00,
2013-06-04 13:44:00,84.7,71.2,28.85,ESE,112,2.7,2.7,64,0.00,,---,0.00,VWS V14.00,2013-06-04 17:44:00,
2013-06-04 13:50:00,84.9,71.4,28.85,ESE,112,2.7,2.7,64,0.00,,---,0.00,VWS V14.00,2013-06-04 17:50:00,
2013-06-04 13:57:00,84.2,70.7,28.85,ESE,112,2.7,2.7,64,0.00,,---,0.00,VWS V14.00,2013-06-04 17:57:00,
2013-06-04 14:03:00,84.0,70.5,28.85,ESE,112,2.7,2.7,64,0.00,,---,0.00,VWS V14.00,2013-06-04 18:03:00,
2013-06-04 14:09:00,84.4,70.9,28.85,ESE,112,2.7,2.7,64,0.00,,---,0.00,VWS V14.00,2013-06-04 18:09:00,
2013-06-04 14:15:00,84.2,70.7,28.85,ESE,112,2.7,2.7,64,0.00,,---,0.00,VWS V14.00,2013-06-04 18:15:00,
2013-06-04 14:21:00,84.0,71.0,28.85,ESE,112,2.7,2.7,65,0.00,,---,0.00,VWS V14.00,2013-06-04 18:21:00,
2013-06-04 14:27:00,83.8,70.4,28.85,ENE,68,2.5,2.7,64,0.00,,---,0.00,VWS V14.00,2013-06-04 18:27:00,
2013-06-04 14:33:00,84.4,70.9,28.85,ENE,68,2.5,2.7,64,0.00,,---,0.00,VWS V14.00,2013-06-04 18:33:00,
2013-06-04 14:39:00,84.7,71.2,28.85,ENE,68,2.5,2.7,64,0.00,,---,0.00,VWS V14.00,2013-06-04 18:39:00,
2013-06-04 14:45:00,84.7,71.2,28.85,ENE,68,2.5,2.7,64,0.00,,---,0.00,VWS V14.00,2013-06-04 18:45:00,
2013-06-04 14:51:00,84.6,71.1,28.85,ENE,68,2.5,2.7,64,0.00,,---,0.00,VWS V14.00,2013-06-04 18:51:00,
2013-06-04 14:57:00,84.7,71.2,28.85,ENE,68,2.5,2.7,64,0.00,,---,0.00,VWS V14.00,2013-06-04 18:57:00,
2013-06-04 15:03:00,84.6,70.1,28.85,ENE,68,2.5,2.5,62,0.00,,---,0.00,VWS V14.00,2013-06-04 19:03:00,
2013-06-04 15:09:00,84.6,70.6,28.85,ESE,112,2.7,2.7,63,0.00,,---,0.00,VWS V14.00,2013-06-04 19:09:00,
2013-06-04 15:15:00,84.7,71.2,28.85,ESE,112,2.7,2.7,64,0.00,,---,0.00,VWS V14.00,2013-06-04 19:15:00,
2013-06-04 15:21:00,85.1,71.6,28.85,ESE,112,2.7,2.7,64,0.00,,---,0.00,VWS V14.00,2013-06-04 19:21:00,
2013-06-04 15:27:00,85.5,71.4,28.85,ESE,112,2.7,2.7,63,0.00,,---,0.00,VWS V14.00,2013-06-04 19:27:00,
2013-06-04 15:33:00,85.5,71.4,28.85,ESE,112,2.7,2.7,63,0.00,,---,0.00,VWS V14.00,2013-06-04 19:33:00,
2013-06-04 15:39:00,85.5,71.4,28.85,ESE,112,2.7,2.7,63,0.00,,---,0.00,VWS V14.00,2013-06-04 19:39:00,
2013-06-04 15:45:00,85.5,71.0,28.85,WSW,248,2.5,2.7,62,0.00,,---,0.00,VWS V14.00,2013-06-04 19:45:00,
2013-06-04 15:54:00,85.6,71.1,28.85,WSW,248,2.5,2.7,62,0.00,,---,0.00,VWS V14.00,2013-06-04 19:54:00,
2013-06-04 16:00:00,85.6,71.1,28.85,WSW,248,2.5,2.7,62,0.00,,---,0.00,VWS V14.00,2013-06-04 20:00:00,
2013-06-04 16:06:00,85.6,70.7,28.85,WSW,248,2.5,2.5,61,0.00,,---,0.00,VWS V14.00,2013-06-04 20:06:00,
2013-06-04 16:12:00,85.6,70.7,28.85,WSW,248,2.5,2.5,61,0.00,,---,0.00,VWS V14.00,2013-06-04 20:12:00,
2013-06-04 16:18:00,85.6,70.7,28.85,WSW,248,2.5,2.5,61,0.00,,---,0.00,VWS V14.00,2013-06-04 20:18:00,
2013-06-04 16:24:00,85.6,70.7,28.85,WSW,248,2.5,2.5,61,0.00,,---,0.00,VWS V14.00,2013-06-04 20:24:00,
2013-06-04 16:30:00,85.6,70.7,28.85,WSW,248,2.5,2.5,61,0.00,,---,0.00,VWS V14.00,2013-06-04 20:30:00,
2013-06-04 16:36:00,85.8,70.8,28.85,WSW,248,2.5,2.5,61,0.00,,---,0.00,VWS V14.00,2013-06-04 20:36:00,
2013-06-04 16:42:00,85.8,70.8,28.85,WSW,248,2.5,2.5,61,0.00,,---,0.00,VWS V14.00,2013-06-04 20:42:00,
2013-06-04 16:48:00,85.6,69.7,28.85,SW,225,4.9,4.9,59,0.00,,---,0.00,VWS V14.00,2013-06-04 20:48:00,
2013-06-04 16:54:00,85.8,70.3,28.85,SW,225,4.9,4.9,60,0.00,,---,0.00,VWS V14.00,2013-06-04 20:54:00,
2013-06-04 17:00:00,85.6,69.7,28.85,SW,225,4.9,4.9,59,0.00,,---,0.00,VWS V14.00,2013-06-04 21:00:00,
2013-06-04 17:06:00,85.6,70.2,28.85,SW,225,4.9,4.9,60,0.00,,---,0.00,VWS V14.00,2013-06-04 21:06:00,
2013-06-04 17:12:00,85.5,70.0,28.82,SW,225,4.9,4.9,60,0.00,,---,0.00,VWS V14.00,2013-06-04 21:12:00,
2013-06-04 17:18:00,85.5,70.0,28.82,SW,225,4.9,4.9,60,0.00,,---,0.00,VWS V14.00,2013-06-04 21:18:00,
2013-06-04 17:24:00,85.5,70.5,28.82,SW,225,4.9,4.9,61,0.00,,---,0.00,VWS V14.00,2013-06-04 21:24:00,
2013-06-04 17:30:00,85.5,70.5,28.82,SW,225,4.9,4.9,61,0.00,,---,0.00,VWS V14.00,2013-06-04 21:30:00,
2013-06-04 17:37:00,85.3,69.8,28.82,SW,225,4.9,4.9,60,0.00,,---,0.00,VWS V14.00,2013-06-04 21:37:00,
2013-06-04 17:43:00,84.9,69.5,28.82,SW,225,4.9,4.9,60,0.00,,---,0.00,VWS V14.00,2013-06-04 21:43:00,
2013-06-04 17:49:00,84.4,69.5,28.82,SW,225,4.9,4.9,61,0.00,,---,0.00,VWS V14.00,2013-06-04 21:49:00,
2013-06-04 17:55:00,84.2,70.2,28.82,SW,225,4.9,4.9,63,0.00,,---,0.00,VWS V14.00,2013-06-04 21:55:00,
2013-06-04 18:01:00,84.4,69.9,28.82,SW,225,4.9,4.9,62,0.00,,---,0.00,VWS V14.00,2013-06-04 22:01:00,
2013-06-04 18:07:00,84.2,70.7,28.82,SW,225,4.9,4.9,64,0.00,,---,0.00,VWS V14.00,2013-06-04 22:07:00,
2013-06-04 18:13:00,83.8,69.9,28.82,SW,225,4.9,4.9,63,0.00,,---,0.00,VWS V14.00,2013-06-04 22:13:00,
2013-06-04 18:19:00,84.0,70.1,28.82,SW,225,4.9,4.9,63,0.00,,---,0.00,VWS V14.00,2013-06-04 22:19:00,
2013-06-04 18:25:00,83.8,69.9,28.82,SW,225,4.9,4.9,63,0.00,,---,0.00,VWS V14.00,2013-06-04 22:25:00,
2013-06-04 18:31:00,83.8,69.9,28.82,SW,225,4.9,4.9,63,0.00,,---,0.00,VWS V14.00,2013-06-04 22:31:00,
2013-06-04 18:37:00,83.8,70.4,28.82,SW,225,4.9,4.9,64,0.00,,---,0.00,VWS V14.00,2013-06-04 22:37:00,
2013-06-04 18:43:00,83.7,70.2,28.82,SW,225,4.9,4.9,64,0.00,,---,0.00,VWS V14.00,2013-06-04 22:43:00,
2013-06-04 18:49:00,83.5,70.0,28.82,SW,225,4.9,4.9,64,0.00,,---,0.00,VWS V14.00,2013-06-04 22:49:00,
2013-06-04 18:55:00,83.1,70.1,28.82,SW,225,4.9,4.9,65,0.00,,---,0.00,VWS V14.00,2013-06-04 22:55:00,
2013-06-04 19:01:00,82.9,70.0,28.82,SW,225,4.9,4.9,65,0.00,,---,0.00,VWS V14.00,2013-06-04 23:01:00,
2013-06-04 19:07:00,82.8,69.8,28.82,SW,225,4.9,4.9,65,0.00,,---,0.00,VWS V14.00,2013-06-04 23:07:00,
2013-06-04 19:13:00,82.8,69.8,28.85,SW,225,4.9,4.9,65,0.00,,---,0.00,VWS V14.00,2013-06-04 23:13:00,
2013-06-04 19:19:00,82.6,69.6,28.85,SW,225,4.9,4.9,65,0.00,,---,0.00,VWS V14.00,2013-06-04 23:19:00,
2013-06-04 19:25:00,82.4,69.5,28.85,SW,225,4.9,4.9,65,0.00,,---,0.00,VWS V14.00,2013-06-04 23:25:00,
2013-06-04 19:31:00,82.2,69.3,28.85,East,90,2.5,4.9,65,0.00,,---,0.00,VWS V14.00,2013-06-04 23:31:00,
2013-06-04 19:37:00,81.9,68.9,28.85,East,90,2.5,4.9,65,0.00,,---,0.00,VWS V14.00,2013-06-04 23:37:00,
2013-06-04 19:43:00,81.7,68.8,28.85,East,90,2.5,4.9,65,0.00,,---,0.00,VWS V14.00,2013-06-04 23:43:00,
2013-06-04 19:49:00,81.3,68.9,28.85,East,90,2.5,4.9,66,0.00,,---,0.00,VWS V14.00,2013-06-04 23:49:00,
2013-06-04 19:55:00,81.0,68.5,28.85,East,90,2.5,4.9,66,0.00,,---,0.00,VWS V14.00,2013-06-04 23:55:00,
2013-06-04 20:01:00,80.6,68.6,28.85,East,90,2.5,2.5,67,0.00,,---,0.00,VWS V14.00,2013-06-05 00:01:00,
2013-06-04 20:07:00,80.4,68.9,28.85,East,90,2.5,2.5,68,0.00,,---,0.00,VWS V14.00,2013-06-05 00:07:00,
2013-06-04 20:13:00,79.9,68.4,28.85,East,90,2.5,2.5,68,0.00,,---,0.00,VWS V14.00,2013-06-05 00:13:00,
2013-06-04 20:20:00,79.5,68.5,28.85,East,90,2.5,2.5,69,0.00,,---,0.00,VWS V14.00,2013-06-05 00:20:00,
2013-06-04 20:26:00,79.2,68.5,28.85,East,90,2.5,2.5,70,0.00,,---,0.00,VWS V14.00,2013-06-05 00:26:00,
2013-06-04 20:32:00,78.8,68.2,28.85,East,90,2.5,2.5,70,0.00,,---,0.00,VWS V14.00,2013-06-05 00:32:00,
2013-06-04 20:38:00,78.4,68.3,28.85,East,90,2.5,2.5,71,0.00,,---,0.00,VWS V14.00,2013-06-05 00:38:00,
2013-06-04 20:44:00,78.1,68.3,28.85,East,90,2.5,2.5,72,0.00,,---,0.00,VWS V14.00,2013-06-05 00:44:00,
2013-06-04 20:50:00,77.7,68.4,28.85,East,90,2.5,2.5,73,0.00,,---,0.00,VWS V14.00,2013-06-05 00:50:00,
2013-06-04 20:56:00,77.5,68.2,28.85,East,90,2.5,2.5,73,0.00,,---,0.00,VWS V14.00,2013-06-05 00:56:00,
2013-06-04 21:02:00,77.4,68.4,28.85,North,0,0.0,0.0,74,0.00,,---,0.00,VWS V14.00,2013-06-05 01:02:00,
2013-06-04 21:08:00,77.2,68.3,28.85,North,0,0.0,0.0,74,0.00,,---,0.00,VWS V14.00,2013-06-05 01:08:00,
2013-06-04 21:14:00,77.0,68.5,28.85,North,0,0.0,0.0,75,0.00,,---,0.00,VWS V14.00,2013-06-05 01:14:00,
2013-06-04 21:20:00,76.8,68.7,28.85,North,0,0.0,0.0,76,0.00,,---,0.00,VWS V14.00,2013-06-05 01:20:00,
2013-06-04 21:26:00,76.6,68.1,28.88,North,0,0.0,0.0,75,0.00,,---,0.00,VWS V14.00,2013-06-05 01:26:00,
2013-06-04 21:32:00,76.5,67.9,28.88,North,0,0.0,0.0,75,0.00,,---,0.00,VWS V14.00,2013-06-05 01:32:00,
2013-06-04 21:38:00,76.3,68.2,28.88,North,0,0.0,0.0,76,0.00,,---,0.00,VWS V14.00,2013-06-05 01:38:00,
2013-06-04 21:44:00,76.3,68.2,28.88,North,0,0.0,0.0,76,0.00,,---,0.00,VWS V14.00,2013-06-05 01:44:00,
2013-06-04 21:50:00,75.9,67.8,28.88,North,0,0.0,0.0,76,0.00,,---,0.00,VWS V14.00,2013-06-05 01:50:00,
2013-06-04 21:56:00,75.7,67.6,28.88,North,0,0.0,0.0,76,0.00,,---,0.00,VWS V14.00,2013-06-05 01:56:00,
2013-06-04 22:02:00,75.6,67.5,28.88,North,0,0.0,0.0,76,0.00,,---,0.00,VWS V14.00,2013-06-05 02:02:00,
2013-06-04 22:08:00,75.4,67.3,28.88,North,0,0.0,0.0,76,0.00,,---,0.00,VWS V14.00,2013-06-05 02:08:00,
2013-06-04 22:14:00,75.2,67.5,28.88,North,0,0.0,0.0,77,0.00,,---,0.00,VWS V14.00,2013-06-05 02:14:00,
2013-06-04 22:20:00,75.0,67.3,28.88,North,0,0.0,0.0,77,0.00,,---,0.00,VWS V14.00,2013-06-05 02:20:00,
2013-06-04 22:26:00,74.8,67.2,28.91,North,0,0.0,0.0,77,0.00,,---,0.00,VWS V14.00,2013-06-05 02:26:00,
2013-06-04 22:32:00,74.7,67.0,28.91,North,0,0.0,0.0,77,0.00,,---,0.00,VWS V14.00,2013-06-05 02:32:00,
2013-06-04 22:38:00,74.7,67.0,28.91,North,0,0.0,0.0,77,0.00,,---,0.00,VWS V14.00,2013-06-05 02:38:00,
2013-06-04 22:44:00,74.5,66.8,28.91,North,0,0.0,0.0,77,0.00,,---,0.00,VWS V14.00,2013-06-05 02:44:00,
2013-06-04 22:50:00,74.3,67.0,28.91,North,0,0.0,0.0,78,0.00,,---,0.00,VWS V14.00,2013-06-05 02:50:00,
2013-06-04 22:57:00,74.3,67.0,28.88,North,0,0.0,0.0,78,0.00,,---,0.00,VWS V14.00,2013-06-05 02:57:00,
2013-06-04 23:03:00,74.1,66.8,28.88,North,0,0.0,0.0,78,0.00,,---,0.00,VWS V14.00,2013-06-05 03:03:00,
2013-06-04 23:09:00,73.9,66.7,28.88,North,0,0.0,0.0,78,0.00,,---,0.00,VWS V14.00,2013-06-05 03:09:00,
2013-06-04 23:15:00,73.9,66.7,28.91,North,0,0.0,0.0,78,0.00,,---,0.00,VWS V14.00,2013-06-05 03:15:00,
2013-06-04 23:21:00,73.8,66.5,28.91,North,0,0.0,0.0,78,0.00,,---,0.00,VWS V14.00,2013-06-05 03:21:00,
2013-06-04 23:27:00,73.8,66.5,28.91,North,0,0.0,0.0,78,0.00,,---,0.00,VWS V14.00,2013-06-05 03:27:00,
2013-06-04 23:33:00,73.6,66.3,28.91,North,0,0.0,0.0,78,0.00,,---,0.00,VWS V14.00,2013-06-05 03:33:00,
2013-06-04 23:39:00,73.4,66.1,28.91,North,0,0.0,0.0,78,0.00,,---,0.00,VWS V14.00,2013-06-05 03:39:00,
2013-06-04 23:45:00,73.4,66.1,28.88,North,0,0.0,0.0,78,0.00,,---,0.00,VWS V14.00,2013-06-05 03:45:00,
2013-06-04 23:51:00,73.2,66.3,28.88,North,0,0.0,0.0,79,0.00,,---,0.00,VWS V14.00,2013-06-05 03:51:00,
2013-06-04 23:57:00,73.2,66.3,28.88,North,0,0.0,0.0,79,0.00,,---,0.00,VWS V14.00,2013-06-05 03:57:00,